Location: Unspecified
(48.2082°N, 0.0000°E)
Time: 13:12:55
(UTC+00:00)

A-11 Canister half - Pass Details

Date: 22 June 2019
Orbit: 1514 x 1685 km, 47.2° (Epoch: 17 July)

Event Time Altitude Azimuth Distance (km) Brightness Sun altitude
Rises 09:23:41 0° 204° (SSW) 4,910 11.7 50.2°
Reaches altitude 10° 09:27:17 10° 195° (SSW) 3,909 11.3 50.7°
Maximum altitude 09:35:46 33° 137° (SE) 2,498 11.6 52.0°
Drops below altitude 10° 09:44:02 10° 78° (ENE) 3,815 11.7 53.2°
Sets 09:47:28 0° 70° (ENE) 4,777 11.9 53.7°
